Content
SEND FEEDBACK

Daily
Averages
Monthly
Summary
United States of America

ELIZABETHTOWN, KENTUCKY


Home > North America > United States > Kentucky
Elevation: 24 meters     Latitude: 37 42N     Longitude: 085 59W

WEATHER
 
SELECT A DAY
Number of Records: 195,046;   Date Range: 1/1/95 - 8/12/14
 
SHARE

PRINT THIS DATA

[ ← Previous Day ]
WEATHER ALMANAC - 31 JANUARY, 2013
[ Next Day → ]
[ °F ]   °C
Weather ElementAverageHighLow
Temperature-1.9 °C1.9 °C (4:55 pm)-8 °C (11:59 pm)
Dewpoint-6.4 °C-1 °C (9:25 pm)-13 °C (11:59 pm)
Humidity71.8 %93 % (8:55 pm)56 % (2:55 pm)
Barometer1014.2 hPa1021.7 hPa (11:59 pm)1007.8 hPa (12:25 am)
Wind Speed24.1 km/h40.7 km/h (12:57 am)
Wind Gust61.2 km/h (9:38 pm)
Weather ElementAverage
Visibility12.1 km
Wind DirectionWSW (258.8 °)

Weather ElementTotal
Precipitation0.25 mm
Heating Degree Days21.4 (Base 18.3)
Averaged from 56 records on 31 January, 2013
WEATHER CONDITIONS BREAKOUT
WIND DIRECTION BREAKOUT
WEATHER BY HOUR - 31 JANUARY, 2013
[ °F ]   °C
Local TimeTemperatureDewpointHumidityBarometerVisibilityWind DirectionWind SpeedGust SpeedPrecipitationEventsConditions
12:25 AM0 °C-4 °C75 %1007.8 hPa16.1 kmWest (260°)33.3 km/h44.4 km/hOvercast
12:40 AM0 °C-4 °C75 %1008.1 hPa16.1 kmWest (270°)29.6 km/h48.1 km/hOvercast
12:55 AM-0.4 °C-4.8 °C72 %1008.5 hPa16.1 kmWest (260°)35.2 km/h53.8 km/h0 mmOvercast
12:57 AM0 °C-5 °C69 %1008.5 hPa16.1 kmWest (270°)40.7 km/h53.8 km/hOvercast
1:55 AM-1.1 °C-6.4 °C68 %1009.8 hPa16.1 kmWest (260°)25.9 km/h46.3 km/h0 mmOvercast
1:58 AM-1 °C-6 °C69 %1010.2 hPa16.1 kmWest (260°)24.1 km/h44.4 km/hOvercast
1:59 AM-1 °C-7 °C64 %1010.2 hPa16.1 kmWest (260°)27.8 km/h44.4 km/hOvercast
2:51 AM-2 °C-8 °C64 %1010.8 hPa16.1 kmWest (260°)31.5 km/h46.3 km/hSnowLight Snow
2:55 AM-1.6 °C-7.8 °C63 %1011.2 hPa16.1 kmWest (260°)25.9 km/h42.6 km/h0 mmSnowLight Snow
3:03 AM-2 °C-7 °C69 %1011.2 hPa16.1 kmWSW (250°)33.3 km/h48.1 km/hOvercast
3:41 AM-2 °C-7 °C69 %1011.2 hPa16.1 kmWest (270°)25.9 km/h35.2 km/hSnowLight Snow
3:52 AM-2 °C-7 °C69 %1011.2 hPa16.1 kmWest (260°)24.1 km/h31.5 km/hSnowLight Snow
3:55 AM-1.6 °C-6.9 °C68 %1011.5 hPa16.1 kmWest (260°)25.9 km/h35.2 km/h0 mmSnowLight Snow
4:25 AM-2 °C-8 °C64 %1011.2 hPa16.1 kmWest (260°)31.5 km/h40.7 km/hOvercast
4:55 AM-1.7 °C-7.9 °C63 %1011.5 hPa16.1 kmWest (270°)18.5 km/h33.3 km/h0 mmOvercast
5:01 AM-2 °C-8 °C64 %1011.9 hPa16.1 kmWest (260°)24.1 km/h35.2 km/hSnowLight Snow
5:55 AM-2.3 °C-7.2 °C69 %1012.2 hPa16.1 kmWSW (250°)24.1 km/h35.2 km/h0 mmSnowLight Snow
6:18 AM-2 °C-7 °C69 %1012.9 hPa16.1 kmWest (260°)20.4 km/hOvercast
6:33 AM-2 °C-7 °C69 %1012.9 hPa16.1 kmWest (260°)22.2 km/h31.5 km/hSnowLight Snow
6:55 AM-2.3 °C-7 °C71 %1013.2 hPa11.3 kmWest (270°)20.4 km/h0 mmSnowLight Snow
7:55 AM-2.6 °C-7.5 °C69 %1014.6 hPa11.3 kmWest (270°)22.2 km/h0 mmSnowLight Snow
8:50 AM-3 °C-7 °C74 %1014.6 hPa3.2 kmWSW (250°)22.2 km/hSnowLight Snow
8:55 AM-2.6 °C-7.2 °C71 %1015.6 hPa2.4 kmWSW (250°)24.1 km/h33.3 km/h0 mmSnowLight Snow
8:59 AM-3 °C-7 °C74 %1014.9 hPa1.6 kmWSW (240°)14.8 km/h33.3 km/hSnowLight Snow
9:13 AM-3 °C-5 °C86 %1014.9 hPa8 kmWSW (240°)18.5 km/hSnowLight Snow
9:34 AM-3 °C-6 °C80 %1014.9 hPa4 kmSW (230°)13 km/hSnowLight Snow
9:39 AM-3 °C-6 °C80 %1015.2 hPa2.9 kmWSW (240°)14.8 km/hSnowLight Snow
9:55 AM-2.7 °C-5.3 °C83 %1016.3 hPa4 kmWSW (250°)16.7 km/h0 mmSnowLight Snow
10:12 AM-3 °C-5 °C86 %1015.2 hPa2.9 kmSW (230°)16.7 km/hSnowLight Snow
10:51 AM-3 °C-5 °C86 %1015.6 hPa3.2 kmWSW (240°)14.8 km/hSnowLight Snow
10:55 AM-2.5 °C-4.5 °C86 %1016.9 hPa3.2 kmSW (230°)18.5 km/h0 mmSnowLight Snow
11:13 AM-2 °C-4 °C86 %1015.9 hPa8 kmSW (220°)13 km/hSnowLight Snow
11:55 AM-1 °C-5.2 °C73 %1016.6 hPa16.1 kmSW (230°)18.5 km/h0 mmSnowLight Snow
12:13 PM0 °C-6 °C64 %1015.6 hPa16.1 kmWSW (240°)27.8 km/h42.6 km/hMostly Cloudy
12:51 PM0 °C-7 °C60 %1015.6 hPa16.1 kmWSW (250°)29.6 km/h40.7 km/hSnowLight Snow
12:55 PM-0.1 °C-6.5 °C62 %1016.3 hPa16.1 kmWSW (250°)24.1 km/h40.7 km/h0 mmSnowLight Snow
1:07 PM0 °C-6 °C64 %1014.9 hPa16.1 kmWSW (240°)25.9 km/h50.1 km/hMostly Cloudy
1:55 PM0.4 °C-6.6 °C60 %1015.6 hPa16.1 kmWSW (240°)33.3 km/h50.1 km/hMostly Cloudy
2:55 PM1.5 °C-6.4 °C56 %1015.6 hPa16.1 kmWSW (240°)24.1 km/h40.7 km/hScattered Clouds
3:55 PM1.4 °C-6.6 °C56 %1014.9 hPa16.1 kmSW (230°)29.6 km/h37 km/hMostly Cloudy
4:55 PM1.9 °C-6.1 °C56 %1015.2 hPa16.1 kmWest (260°)18.5 km/hOvercast
5:55 PM1.5 °C-5.9 °C58 %1015.2 hPa16.1 kmWSW (250°)18.5 km/hMostly Cloudy
6:55 PM1.2 °C-5.3 °C62 %1015.6 hPa16.1 kmWSW (250°)13 km/hMostly Cloudy
7:01 PM1 °C-5 °C65 %1014.6 hPa11.3 kmWSW (240°)18.5 km/hSnowLight Snow
7:55 PM-0.2 °C-2.3 °C86 %1015.6 hPa4.8 kmWest (280°)13 km/h0 mmSnowLight Snow
8:55 PM-0.5 °C-1.5 °C93 %1015.2 hPa4.8 kmWSW (240°)16.7 km/h0 mmSnowLight Snow
9:25 PM0 °C-1 °C93 %1014.6 hPa0.3 kmWest (260°)25.9 km/h37 km/hSnowSnow
9:38 PM-2 °C-4 °C86 %1015.9 hPa3.2 kmWNW (300°)35.2 km/h61.2 km/hSnowLight Snow
9:50 PM-4 °C-6 °C86 %1016.6 hPa4.8 kmWNW (300°)31.5 km/h55.5 km/hSnowLight Snow
9:55 PM-3.9 °C-6.3 °C84 %1017.9 hPa8 kmNW (310°)29.6 km/h55.5 km/h0.25 mmSnowLight Snow
10:55 PM-5.5 °C-8.3 °C81 %1019.6 hPa6.4 kmWNW (290°)24.1 km/h37 km/h0 mmSnowLight Snow
11:20 PM-6 °C-10 °C74 %1020 hPa16.1 kmWNW (300°)27.8 km/h48.1 km/hOvercast
11:25 PM-6 °C-11 °C68 %1020.3 hPa16.1 kmWNW (300°)27.8 km/h46.3 km/hSnowLight Snow
11:40 PM-7 °C-11 °C74 %1020.7 hPa16.1 kmWNW (290°)22.2 km/h42.6 km/hMostly Cloudy
11:55 PM-7.4 °C-12.7 °C66 %1021.3 hPa16.1 kmWNW (290°)31.5 km/h44.4 km/h0 mmMostly Cloudy
11:59 PM-8 °C-13 °C68 %1021.7 hPa16.1 kmWNW (290°)31.5 km/h61.2 km/hScattered Clouds
Hourly data recorded from KFTK, located 0 kilometers away from Elizabethtown, Kentucky







STORIES FROM OUR PARTNERS